Natathlon (1) - Lyonnais (4)

Régionale

VÉNISSIEUX

Du Samedi 11 Decembre 2004 au Dimanche 12 Decembre 2004

Bassin de 25m

50 Papillon Dames

Séries

Nom Année Club Pays Temps Points Niv.
1 BRACHET Cindy 1992 AC DÉCINES FRA 0:34:20 941
2 FLATOT Charley 1992 TRITON CLUB BELLEVILLE FRA 0:34:38 932
3 LUSTIG Elsa 1992 EMS BRON FRA 0:35:65 867
4 EMONARD Margot 1993 ND VILLEFRANCHE-EN-BEAUJOLAIS FRA 0:35:90 854
5 TOMASICCHIO Candice 1992 EMS BRON FRA 0:35:98 850
6 ROCHETTE Lucie 1992 RILLIEUX NATATION FRA 0:36:00 849
7 MARIS Léa 1992 EMS BRON FRA 0:38:99 706
8 GOUAT Audrey 1992 AS CALUIRE FRA 0:39:30 692
9 TYMEN Alizée 1992 SAL ST-PRIEST NATATION FRA 0:39:52 682
10 SCHOCH Armelle 1992 ASPTT LYON FRA 0:39:64 677
11 CHIBI Hind 1992 EMS BRON FRA 0:39:65 676
12 GRANGE Marie 1992 EMS BRON FRA 0:39:68 675
13 MAZZOLA Marjorie 1993 EMS BRON FRA 0:39:79 670
14 JALLOT Delphine 1992 AS CALUIRE FRA 0:40:10 657
15 LAMAIN Anais 1992 ND VILLEFRANCHE-EN-BEAUJOLAIS FRA 0:40:13 655
16 JOURDAN Andréa 1992 EMS BRON FRA 0:40:23 651
17 DAVIN Mélanie 1993 EMS BRON FRA 0:40:44 642
18 JUGNIOT Natacha 1992 TRITON CLUB BELLEVILLE FRA 0:40:45 641
19 RIBEIRO Mélissa 1993 CMO VÉNISSIEUX FRA 0:40:48 640
20 BOUVIER Lauren 1992 LYON NATATION FRA 0:40:61 634
21 DUBOIS Marlène 1992 ND VILLEFRANCHE-EN-BEAUJOLAIS FRA 0:41:42 600
22 VIEUX Mathilde 1992 LYON NATATION FRA 0:41:70 588
23 VEUILLET Manon 1992 ASPTT LYON FRA 0:42:44 558
24 PIETRI Léa 1993 ASPTT LYON FRA 0:42:55 553
25 KEBBAB Farha 1992 SAL ST-PRIEST NATATION FRA 0:42:61 551
26 ORKISZ Ania 1993 VILLEURBANNE NATATION FRA 0:42:91 539
27 BURICAND Mélissa 1992 CN TARARE FRA 0:43:11 531
28 POTELLE Clelia 1992 AS CALUIRE FRA 0:43:14 530
29 SENOSIAIN Léa 1993 VIENNE DISTRICT NATATION FRA 0:43:75 506
30 TARDY Camille 1993 ND VILLEFRANCHE-EN-BEAUJOLAIS FRA 0:43:88 501
31 POULAIN Marine 1993 ND VILLEFRANCHE-EN-BEAUJOLAIS FRA 0:44:44 480
32 MONTOYA Alice 1993 VILLEURBANNE NATATION FRA 0:44:54 476
33 MOREIRA Gwendoline 1993 SAL ST-PRIEST NATATION FRA 0:44:64 472
34 MASSON Cyrielle 1992 AS CALUIRE FRA 0:44:75 468
35 SIMON Johanna 1993 EMS BRON FRA 0:45:42 444
36 MALHERBE Constance 1992 ASPTT LYON FRA 0:45:66 435
37 BOTRABY Nisrine 1992 AC DÉCINES FRA 0:45:82 429
38 MATTEI Marine 1992 SAL ST-PRIEST NATATION FRA 0:46:30 413
39 TROUVE Lucie 1992 RILLIEUX NATATION FRA 0:46:35 411
40 NGO Lina 1993 ASPTT LYON FRA 0:46:45 407
41 ABRIAL Julie 1993 CMO VÉNISSIEUX FRA 0:46:60 402
42 CHEMINEAU Adelie 1993 AS CALUIRE FRA 0:46:66 400
43 ZEREZ Mélanie 1992 CMO VÉNISSIEUX FRA 0:46:73 398
44 NGUYEN-LACHAISE Alexandra 1993 VILLEURBANNE NATATION FRA 0:46:83 394
45 DEVILLERS Isaline 1992 TRITON CLUB BELLEVILLE FRA 0:47:26 380
46 GHELMA Marie 1992 VIENNE DISTRICT NATATION FRA 0:47:82 361
47 AUGAGNEUR Julie 1992 VIENNE DISTRICT NATATION FRA 0:48:03 355
48 MELIH Amel 1993 AC DÉCINES FRA 0:48:16 350
49 GINIES Victoria 1993 CHASSIEU NATATION FRA 0:48:39 343
50 PINQUIER Justine 1993 AC DÉCINES FRA 0:48:64 335
51 DEBBOUS Maywenn 1992 SAUVETEURS GIVORS FRA 0:49:01 324
52 CHET Stephie 1992 ND VILLEFRANCHE-EN-BEAUJOLAIS FRA 0:49:14 320
53 PONTILLE Laura 1992 CHASSIEU NATATION FRA 0:49:40 312
54 NACHAR Karen 1993 VILLEURBANNE NATATION FRA 0:49:50 309
55 FORT Camille 1992 AS CALUIRE FRA 0:49:80 300
56 GARCIA Cyrielle 1992 SAL ST-PRIEST NATATION FRA 0:49:83 299
57 MECHKAR Lyana 1993 EMS BRON FRA 0:50:55 278
58 HANI Sarah 1992 VILLEURBANNE NATATION FRA 0:51:32 256
59 DIAS Stella 1993 VILLEURBANNE NATATION FRA 0:51:59 249
60 JOSEPH Célia 1993 LYON NATATION FRA 0:51:80 243
61 PERRIN Joséphine 1993 CMO VÉNISSIEUX FRA 0:52:20 233
62 PAMEOLE Olivia 1993 CMO VÉNISSIEUX FRA 0:52:22 232
63 BRUN Laura 1993 ND VILLEFRANCHE-EN-BEAUJOLAIS FRA 0:52:24 232
64 MARTINASSO Joanna 1992 LYON NATATION FRA 0:53:78 193
65 MIROUX Justine 1993 LYON NATATION FRA 0:56:11 142
66 GELEY Laurine 1992 CHASSIEU NATATION FRA 0:56:73 129
67 AMBLARD Camille 1992 CHASSIEU NATATION FRA 0:57:49 115
68 DOUIBI Marie 1993 CHASSIEU NATATION FRA 0:58:43 98
69 NEVEU Florence 1993 ND VILLEFRANCHE-EN-BEAUJOLAIS FRA - Disq.
70 CARCELES Mandy 1992 SAL ST-PRIEST NATATION FRA - Disq.
71 COSTE Chloé 1993 ND VILLEFRANCHE-EN-BEAUJOLAIS FRA - Disq.
72 BON Bénédicte 1993 LYON NATATION FRA - Disq.